Time,TemperatureF,DewpointF,PressureIn,WindDirection,WindDirectionDegrees,WindSpeedMPH,WindSpeedGustMPH,Humidity,HourlyPrecipIn,Conditions,Clouds,dailyrainin,SolarRadiationWatts/m^2,SoftwareType,DateUTC
2014-12-25 00:00:00,35.2,33.6,29.51,SSW,211,4.0,9.0,94,0.00,,,0.04,0.0,meteobridge,2014-12-25 05:00:00,
2014-12-25 00:05:00,35.2,33.6,29.51,SW,232,8.1,10.0,94,0.00,,,0.04,0.0,meteobridge,2014-12-25 05:05:00,
2014-12-25 00:10:00,35.2,33.6,29.51,SW,218,4.9,7.0,94,0.00,,,0.04,0.0,meteobridge,2014-12-25 05:10:00,
2014-12-25 00:15:00,35.2,33.6,29.51,SSW,213,4.9,8.0,94,0.00,,,0.04,0.0,meteobridge,2014-12-25 05:15:00,
2014-12-25 00:20:00,35.2,33.6,29.51,SW,227,13.0,13.0,94,0.00,,,0.04,0.0,meteobridge,2014-12-25 05:20:00,
2014-12-25 00:25:00,35.2,33.6,29.52,South,184,2.0,13.0,94,0.00,,,0.04,0.0,meteobridge,2014-12-25 05:25:00,
2014-12-25 00:30:00,35.2,33.6,29.52,South,190,10.1,11.0,94,0.00,,,0.04,0.0,meteobridge,2014-12-25 05:30:00,
2014-12-25 00:35:00,35.4,33.8,29.52,SSW,199,2.9,6.0,94,0.00,,,0.04,0.0,meteobridge,2014-12-25 05:35:00,
2014-12-25 00:40:00,35.4,33.8,29.52,SW,224,8.1,9.0,94,0.00,,,0.04,0.0,meteobridge,2014-12-25 05:40:00,
2014-12-25 00:45:00,35.4,33.8,29.53,SSW,200,4.0,12.0,94,0.00,,,0.04,0.0,meteobridge,2014-12-25 05:45:00,
2014-12-25 00:50:00,35.4,33.8,29.53,SW,221,4.9,7.0,94,0.00,,,0.04,0.0,meteobridge,2014-12-25 05:50:00,
2014-12-25 00:55:00,35.4,33.8,29.53,SSW,198,4.9,15.0,94,0.00,,,0.04,0.0,meteobridge,2014-12-25 05:55:00,
2014-12-25 01:00:00,35.6,34.0,29.54,SW,215,4.0,12.0,94,0.00,,,0.04,0.0,meteobridge,2014-12-25 06:00:00,
2014-12-25 01:05:00,35.6,34.0,29.54,SW,223,4.9,12.0,94,0.00,,,0.04,0.0,meteobridge,2014-12-25 06:05:00,
2014-12-25 01:10:00,35.8,34.2,29.54,South,188,4.9,11.0,94,0.00,,,0.04,0.0,meteobridge,2014-12-25 06:10:00,
2014-12-25 01:15:00,35.8,34.2,29.54,SSW,200,2.9,12.0,94,0.00,,,0.04,0.0,meteobridge,2014-12-25 06:15:00,
2014-12-25 01:20:00,35.8,34.2,29.55,South,170,6.9,12.0,94,0.00,,,0.04,0.0,meteobridge,2014-12-25 06:20:00,
2014-12-25 01:25:00,36.0,34.2,29.55,SSW,192,4.9,9.0,93,0.00,,,0.04,0.0,meteobridge,2014-12-25 06:25:00,
2014-12-25 01:30:00,36.0,34.2,29.55,SSW,196,6.9,10.0,93,0.00,,,0.04,0.0,meteobridge,2014-12-25 06:30:00,
2014-12-25 01:35:00,36.0,34.2,29.55,SSW,212,4.9,8.0,93,0.00,,,0.04,0.0,meteobridge,2014-12-25 06:35:00,
2014-12-25 01:40:00,36.0,34.2,29.55,WSW,244,6.0,9.0,93,0.00,,,0.04,0.0,meteobridge,2014-12-25 06:40:00,
2014-12-25 01:45:00,36.0,34.2,29.56,South,183,6.0,11.0,93,0.00,,,0.04,0.0,meteobridge,2014-12-25 06:45:00,
2014-12-25 01:50:00,36.1,34.3,29.56,SSW,207,6.0,9.0,93,0.00,,,0.04,0.0,meteobridge,2014-12-25 06:50:00,
2014-12-25 01:56:00,36.1,34.3,29.57,SW,217,4.0,7.0,93,0.00,,,0.04,0.0,meteobridge,2014-12-25 06:56:00,
2014-12-25 02:01:00,36.1,34.3,29.57,SSW,202,2.0,9.0,93,0.00,,,0.04,0.0,meteobridge,2014-12-25 07:01:00,
2014-12-25 02:06:00,36.1,34.3,29.57,SW,228,8.1,13.0,93,0.00,,,0.04,0.0,meteobridge,2014-12-25 07:06:00,
2014-12-25 02:11:00,36.1,34.3,29.57,SW,234,4.0,13.0,93,0.00,,,0.04,0.0,meteobridge,2014-12-25 07:11:00,
2014-12-25 02:16:00,36.1,34.3,29.57,SSW,207,2.0,9.0,93,0.00,,,0.04,0.0,meteobridge,2014-12-25 07:16:00,
2014-12-25 02:21:00,36.3,34.5,29.58,SW,227,4.9,12.0,93,0.00,,,0.04,0.0,meteobridge,2014-12-25 07:21:00,
2014-12-25 02:26:00,36.3,34.5,29.58,SSW,197,6.9,8.0,93,0.00,,,0.04,0.0,meteobridge,2014-12-25 07:26:00,
2014-12-25 02:31:00,36.3,34.5,29.58,South,171,6.9,10.0,93,0.00,,,0.04,0.0,meteobridge,2014-12-25 07:31:00,
2014-12-25 02:36:00,36.3,34.5,29.59,South,189,4.0,6.0,93,0.00,,,0.04,0.0,meteobridge,2014-12-25 07:36:00,
2014-12-25 02:41:00,36.3,34.5,29.59,SW,218,6.9,13.0,93,0.00,,,0.04,0.0,meteobridge,2014-12-25 07:41:00,
2014-12-25 02:46:00,36.5,34.7,29.59,SW,219,4.0,7.0,93,0.00,,,0.04,0.0,meteobridge,2014-12-25 07:46:00,
2014-12-25 02:51:00,36.5,34.7,29.60,SSW,192,4.9,9.0,93,0.00,,,0.04,0.0,meteobridge,2014-12-25 07:51:00,
2014-12-25 02:56:00,36.7,34.9,29.60,South,188,4.0,9.0,93,0.00,,,0.04,0.0,meteobridge,2014-12-25 07:56:00,
2014-12-25 03:01:00,36.7,34.9,29.61,South,186,4.9,14.0,93,0.00,,,0.04,0.0,meteobridge,2014-12-25 08:01:00,
2014-12-25 03:06:00,36.7,34.5,29.61,SW,225,8.1,14.0,92,0.00,,,0.04,0.0,meteobridge,2014-12-25 08:06:00,
2014-12-25 03:11:00,36.7,34.5,29.61,South,184,6.0,11.0,92,0.00,,,0.04,0.0,meteobridge,2014-12-25 08:11:00,
2014-12-25 03:16:00,36.7,34.9,29.62,SW,217,4.0,11.0,93,0.00,,,0.04,0.0,meteobridge,2014-12-25 08:16:00,
2014-12-25 03:21:00,36.7,34.9,29.62,SSW,192,4.9,11.0,93,0.00,,,0.04,0.0,meteobridge,2014-12-25 08:21:00,
2014-12-25 03:26:00,36.7,34.9,29.62,SW,219,6.9,9.0,93,0.00,,,0.04,0.0,meteobridge,2014-12-25 08:26:00,
2014-12-25 03:31:00,36.7,34.9,29.63,South,190,6.0,8.0,93,0.00,,,0.04,0.0,meteobridge,2014-12-25 08:31:00,
2014-12-25 03:36:00,36.7,34.9,29.63,South,184,4.0,9.0,93,0.00,,,0.04,0.0,meteobridge,2014-12-25 08:36:00,
2014-12-25 03:41:00,36.7,34.9,29.63,SW,219,2.9,9.0,93,0.00,,,0.04,0.0,meteobridge,2014-12-25 08:41:00,
2014-12-25 03:46:00,36.7,34.9,29.64,SW,214,4.9,11.0,93,0.00,,,0.04,0.0,meteobridge,2014-12-25 08:46:00,
2014-12-25 03:51:00,36.5,34.7,29.64,SW,223,6.0,11.0,93,0.00,,,0.04,0.0,meteobridge,2014-12-25 08:51:00,
2014-12-25 03:56:00,36.5,34.9,29.64,SW,226,4.9,6.0,94,0.00,,,0.04,0.0,meteobridge,2014-12-25 08:56:00,
2014-12-25 04:01:00,36.3,34.7,29.64,South,182,8.1,9.0,94,0.00,,,0.04,0.0,meteobridge,2014-12-25 09:01:00,
2014-12-25 04:06:00,36.3,34.7,29.64,WSW,242,4.0,11.0,94,0.00,,,0.04,0.0,meteobridge,2014-12-25 09:06:00,
2014-12-25 04:11:00,36.3,34.7,29.65,SW,230,6.0,11.0,94,0.00,,,0.04,0.0,meteobridge,2014-12-25 09:11:00,
2014-12-25 04:16:00,36.3,34.7,29.65,SW,219,6.0,11.0,94,0.00,,,0.04,0.0,meteobridge,2014-12-25 09:16:00,
2014-12-25 04:21:00,36.3,34.7,29.65,SSW,199,4.9,8.0,94,0.00,,,0.04,0.0,meteobridge,2014-12-25 09:21:00,
2014-12-25 04:26:00,36.3,34.5,29.65,SSW,210,4.0,12.0,93,0.00,,,0.04,0.0,meteobridge,2014-12-25 09:26:00,
2014-12-25 04:31:00,36.5,34.7,29.65,SSW,198,2.9,11.0,93,0.00,,,0.04,0.0,meteobridge,2014-12-25 09:31:00,
2014-12-25 04:36:00,36.5,34.7,29.66,SW,219,6.9,11.0,93,0.00,,,0.04,0.0,meteobridge,2014-12-25 09:36:00,
2014-12-25 04:41:00,36.5,34.7,29.66,West,275,6.0,8.0,93,0.00,,,0.04,0.0,meteobridge,2014-12-25 09:41:00,
2014-12-25 04:46:00,36.5,34.7,29.66,SW,219,4.9,9.0,93,0.00,,,0.04,0.0,meteobridge,2014-12-25 09:46:00,
2014-12-25 04:51:00,36.5,34.7,29.67,WSW,237,6.9,8.0,93,0.00,,,0.04,0.0,meteobridge,2014-12-25 09:51:00,
2014-12-25 04:56:00,36.7,34.5,29.67,SW,233,6.0,12.0,92,0.00,,,0.04,0.0,meteobridge,2014-12-25 09:56:00,
2014-12-25 05:01:00,36.7,34.5,29.67,South,188,8.1,13.0,92,0.00,,,0.04,0.0,meteobridge,2014-12-25 10:01:00,
2014-12-25 05:06:00,36.7,34.5,29.67,WSW,248,4.0,11.0,92,0.00,,,0.04,0.0,meteobridge,2014-12-25 10:06:00,
2014-12-25 05:12:00,36.7,34.3,29.68,SW,214,4.0,10.0,91,0.00,,,0.04,0.0,meteobridge,2014-12-25 10:12:00,
2014-12-25 05:17:00,36.7,34.5,29.69,SW,219,6.0,12.0,92,0.00,,,0.04,0.0,meteobridge,2014-12-25 10:17:00,
2014-12-25 05:22:00,36.7,34.3,29.68,SW,231,8.1,9.0,91,0.00,,,0.04,0.0,meteobridge,2014-12-25 10:22:00,
2014-12-25 05:27:00,36.7,34.3,29.69,SSW,211,4.9,15.0,91,0.00,,,0.04,0.0,meteobridge,2014-12-25 10:27:00,
2014-12-25 05:32:00,36.7,34.3,29.70,SW,217,4.9,10.0,91,0.00,,,0.04,0.0,meteobridge,2014-12-25 10:32:00,
2014-12-25 05:37:00,36.7,34.3,29.70,SW,229,8.9,11.0,91,0.00,,,0.04,0.0,meteobridge,2014-12-25 10:37:00,
2014-12-25 05:42:00,36.7,34.3,29.70,SW,219,6.0,11.0,91,0.00,,,0.04,0.0,meteobridge,2014-12-25 10:42:00,
2014-12-25 05:47:00,36.7,34.3,29.71,WSW,250,4.0,14.0,91,0.00,,,0.04,0.0,meteobridge,2014-12-25 10:47:00,
2014-12-25 05:52:00,36.5,34.2,29.71,WSW,244,2.9,8.0,91,0.00,,,0.04,0.0,meteobridge,2014-12-25 10:52:00,
2014-12-25 05:57:00,36.5,34.3,29.72,WNW,286,4.9,13.0,92,0.00,,,0.04,0.0,meteobridge,2014-12-25 10:57:00,
2014-12-25 06:02:00,36.3,34.2,29.72,WSW,240,2.0,6.0,92,0.00,,,0.04,0.0,meteobridge,2014-12-25 11:02:00,
2014-12-25 06:07:00,36.3,34.2,29.73,SW,219,4.0,6.0,92,0.00,,,0.04,0.0,meteobridge,2014-12-25 11:07:00,
2014-12-25 06:12:00,36.1,34.0,29.73,SW,218,4.9,8.0,92,0.00,,,0.04,0.0,meteobridge,2014-12-25 11:12:00,
2014-12-25 06:17:00,36.1,34.3,29.74,West,261,4.9,9.0,93,0.00,,,0.04,0.0,meteobridge,2014-12-25 11:17:00,
2014-12-25 06:22:00,36.1,34.3,29.74,SW,230,2.0,8.0,93,0.00,,,0.04,0.0,meteobridge,2014-12-25 11:22:00,
2014-12-25 06:27:00,36.1,34.3,29.75,WSW,251,2.9,5.0,93,0.00,,,0.04,0.0,meteobridge,2014-12-25 11:27:00,
2014-12-25 06:32:00,36.1,34.3,29.75,WSW,238,2.0,10.0,93,0.00,,,0.04,0.0,meteobridge,2014-12-25 11:32:00,
2014-12-25 06:37:00,36.1,34.3,29.76,SSW,203,4.9,9.0,93,0.00,,,0.04,0.0,meteobridge,2014-12-25 11:37:00,
2014-12-25 06:42:00,36.1,34.3,29.76,West,262,4.0,8.0,93,0.00,,,0.04,0.0,meteobridge,2014-12-25 11:42:00,
2014-12-25 06:47:00,36.1,34.3,29.76,SSW,198,4.9,16.0,93,0.00,,,0.04,0.0,meteobridge,2014-12-25 11:47:00,
2014-12-25 06:52:00,36.1,34.0,29.77,WSW,243,8.1,11.0,92,0.00,,,0.04,0.0,meteobridge,2014-12-25 11:52:00,
2014-12-25 06:58:00,36.1,34.0,29.77,SW,235,8.1,11.0,92,0.00,,,0.04,0.0,meteobridge,2014-12-25 11:58:00,
2014-12-25 07:02:00,36.1,34.0,29.78,SW,215,4.0,8.0,92,0.00,,,0.04,0.0,meteobridge,2014-12-25 12:02:00,
2014-12-25 07:08:00,36.0,33.8,29.78,SW,229,4.0,9.0,92,0.00,,,0.04,0.0,meteobridge,2014-12-25 12:08:00,
2014-12-25 07:13:00,36.0,33.8,29.78,SW,227,4.0,5.0,92,0.00,,,0.04,0.0,meteobridge,2014-12-25 12:13:00,
2014-12-25 07:18:00,36.0,33.8,29.79,SW,228,4.9,10.0,92,0.00,,,0.04,0.0,meteobridge,2014-12-25 12:18:00,
2014-12-25 07:23:00,36.0,33.8,29.79,SW,219,0.0,8.0,92,0.00,,,0.04,0.0,meteobridge,2014-12-25 12:23:00,
2014-12-25 07:28:00,36.0,33.6,29.80,SW,234,6.0,8.0,91,0.00,,,0.04,0.0,meteobridge,2014-12-25 12:28:00,
2014-12-25 07:33:00,35.8,33.4,29.80,SW,230,11.0,12.0,91,0.00,,,0.04,0.0,meteobridge,2014-12-25 12:33:00,
2014-12-25 07:38:00,35.8,33.4,29.80,WSW,240,4.0,12.0,91,0.00,,,0.04,0.0,meteobridge,2014-12-25 12:38:00,
2014-12-25 07:43:00,35.8,33.4,29.80,SW,217,6.9,17.0,91,0.01,,,0.05,0.0,meteobridge,2014-12-25 12:43:00,
2014-12-25 07:48:00,35.8,33.4,29.81,WSW,242,4.0,11.0,91,0.01,,,0.05,0.0,meteobridge,2014-12-25 12:48:00,
2014-12-25 07:53:00,35.8,33.4,29.81,SSW,197,2.9,12.0,91,0.01,,,0.05,0.0,meteobridge,2014-12-25 12:53:00,
2014-12-25 07:58:00,35.6,33.3,29.82,WSW,238,2.9,11.0,91,0.01,,,0.05,0.0,meteobridge,2014-12-25 12:58:00,
2014-12-25 08:03:00,35.6,33.4,29.82,WSW,241,4.0,6.0,92,0.01,,,0.05,0.0,meteobridge,2014-12-25 13:03:00,
2014-12-25 08:08:00,35.4,33.3,29.83,SSW,210,6.0,6.0,92,0.01,,,0.05,0.0,meteobridge,2014-12-25 13:08:00,
2014-12-25 08:13:00,35.4,33.3,29.83,SW,215,4.0,9.0,92,0.01,,,0.05,0.0,meteobridge,2014-12-25 13:13:00,
2014-12-25 08:18:00,35.4,33.3,29.83,SW,221,4.0,7.0,92,0.01,,,0.05,5.0,meteobridge,2014-12-25 13:18:00,
2014-12-25 08:23:00,35.6,33.4,29.83,SW,230,4.0,9.0,92,0.01,,,0.05,5.0,meteobridge,2014-12-25 13:23:00,
2014-12-25 08:28:00,35.6,33.4,29.84,WSW,239,2.9,7.0,92,0.01,,,0.05,7.0,meteobridge,2014-12-25 13:28:00,
2014-12-25 08:33:00,35.6,33.4,29.84,WSW,242,4.9,6.0,92,0.01,,,0.05,9.0,meteobridge,2014-12-25 13:33:00,
2014-12-25 08:38:00,35.8,33.6,29.85,SW,226,6.9,9.0,92,0.01,,,0.05,7.0,meteobridge,2014-12-25 13:38:00,
2014-12-25 08:43:00,35.6,33.4,29.85,WSW,246,2.9,10.0,92,0.00,,,0.05,12.0,meteobridge,2014-12-25 13:43:00,
2014-12-25 08:48:00,35.6,33.4,29.86,WSW,246,2.9,13.0,92,0.00,,,0.05,11.0,meteobridge,2014-12-25 13:48:00,
2014-12-25 08:53:00,35.6,33.4,29.86,SSW,192,6.9,7.0,92,0.00,,,0.05,21.0,meteobridge,2014-12-25 13:53:00,
2014-12-25 08:58:00,35.4,33.3,29.86,SW,228,2.9,10.0,92,0.00,,,0.05,16.0,meteobridge,2014-12-25 13:58:00,
2014-12-25 09:03:00,35.4,33.6,29.86,West,269,2.0,7.0,93,0.00,,,0.05,35.0,meteobridge,2014-12-25 14:03:00,
2014-12-25 09:08:00,35.4,33.6,29.86,WSW,237,0.9,7.0,93,0.00,,,0.05,28.0,meteobridge,2014-12-25 14:08:00,
2014-12-25 09:13:00,35.4,33.6,29.87,SSW,212,4.9,6.0,93,0.00,,,0.05,18.0,meteobridge,2014-12-25 14:13:00,
2014-12-25 09:18:00,35.4,33.6,29.87,SW,232,4.0,6.0,93,0.00,,,0.05,25.0,meteobridge,2014-12-25 14:18:00,
2014-12-25 09:23:00,35.6,33.8,29.87,WSW,244,11.0,12.0,93,0.00,,,0.05,33.0,meteobridge,2014-12-25 14:23:00,
2014-12-25 09:28:00,35.6,33.8,29.88,WSW,238,2.0,8.0,93,0.00,,,0.05,37.0,meteobridge,2014-12-25 14:28:00,
2014-12-25 09:33:00,35.6,33.8,29.88,West,263,2.0,8.0,93,0.00,,,0.05,53.0,meteobridge,2014-12-25 14:33:00,
2014-12-25 09:38:00,35.6,33.8,29.88,SW,235,4.0,7.0,93,0.00,,,0.05,65.0,meteobridge,2014-12-25 14:38:00,
2014-12-25 09:43:00,35.8,34.0,29.89,WSW,243,0.9,6.0,93,0.00,,,0.05,69.0,meteobridge,2014-12-25 14:43:00,
2014-12-25 09:48:00,35.8,34.0,29.89,WSW,247,2.9,7.0,93,0.00,,,0.05,77.0,meteobridge,2014-12-25 14:48:00,
2014-12-25 09:53:00,36.0,34.2,29.90,SW,221,6.0,7.0,93,0.00,,,0.05,77.0,meteobridge,2014-12-25 14:53:00,
2014-12-25 09:58:00,36.1,34.3,29.90,WSW,238,4.0,14.0,93,0.00,,,0.05,67.0,meteobridge,2014-12-25 14:58:00,
2014-12-25 10:03:00,36.3,34.2,29.91,WSW,253,4.9,11.0,92,0.00,,,0.05,72.0,meteobridge,2014-12-25 15:03:00,
2014-12-25 10:09:00,36.3,34.0,29.91,WSW,246,2.0,8.0,91,0.00,,,0.05,42.0,meteobridge,2014-12-25 15:09:00,
2014-12-25 10:14:00,36.7,34.3,29.91,SW,232,2.9,9.0,91,0.00,,,0.05,51.0,meteobridge,2014-12-25 15:14:00,
2014-12-25 10:19:00,36.7,34.3,29.92,SW,234,2.9,5.0,91,0.00,,,0.05,63.0,meteobridge,2014-12-25 15:19:00,
2014-12-25 10:24:00,36.7,34.0,29.93,WSW,258,10.1,10.1,90,0.00,,,0.05,58.0,meteobridge,2014-12-25 15:24:00,
2014-12-25 10:29:00,36.9,34.0,29.93,SW,227,4.0,12.0,89,0.00,,,0.05,88.0,meteobridge,2014-12-25 15:29:00,
2014-12-25 10:34:00,36.9,33.6,29.93,WSW,244,4.0,10.0,88,0.00,,,0.05,97.0,meteobridge,2014-12-25 15:34:00,
2014-12-25 10:39:00,37.0,33.8,29.93,SSW,200,4.0,10.0,88,0.00,,,0.05,84.0,meteobridge,2014-12-25 15:39:00,
2014-12-25 10:44:00,37.2,34.0,29.94,SW,224,4.0,11.0,88,0.00,,,0.05,67.0,meteobridge,2014-12-25 15:44:00,
2014-12-25 10:49:00,37.2,33.8,29.94,West,274,4.9,13.0,87,0.00,,,0.05,69.0,meteobridge,2014-12-25 15:49:00,
2014-12-25 10:54:00,37.2,33.8,29.95,WSW,251,4.0,7.0,87,0.00,,,0.05,65.0,meteobridge,2014-12-25 15:54:00,
2014-12-25 10:59:00,37.0,33.6,29.95,SW,222,6.0,11.0,87,0.00,,,0.05,76.0,meteobridge,2014-12-25 15:59:00,
2014-12-25 11:04:00,37.0,33.3,29.96,WSW,243,8.1,12.0,86,0.00,,,0.05,72.0,meteobridge,2014-12-25 16:04:00,
2014-12-25 11:09:00,37.0,33.3,29.96,South,183,6.0,15.0,86,0.00,,,0.05,84.0,meteobridge,2014-12-25 16:09:00,
2014-12-25 11:14:00,37.2,33.4,29.96,SSW,192,4.9,14.0,86,0.00,,,0.05,111.0,meteobridge,2014-12-25 16:14:00,
2014-12-25 11:19:00,37.2,33.1,29.96,SW,223,4.0,7.0,85,0.00,,,0.05,74.0,meteobridge,2014-12-25 16:19:00,
2014-12-25 11:24:00,37.2,32.9,29.96,SW,232,4.0,11.0,84,0.00,,,0.05,63.0,meteobridge,2014-12-25 16:24:00,
2014-12-25 11:29:00,37.2,32.5,29.96,SSW,197,4.0,10.0,83,0.00,,,0.05,65.0,meteobridge,2014-12-25 16:29:00,
2014-12-25 11:34:00,37.2,32.2,29.96,SW,222,4.9,9.0,82,0.00,,,0.05,70.0,meteobridge,2014-12-25 16:34:00,
2014-12-25 11:39:00,37.2,32.0,29.96,SSW,204,6.9,9.0,81,0.00,,,0.05,84.0,meteobridge,2014-12-25 16:39:00,
2014-12-25 11:44:00,37.2,32.2,29.96,WSW,252,4.9,16.0,82,0.00,,,0.05,77.0,meteobridge,2014-12-25 16:44:00,
2014-12-25 11:49:00,37.2,31.6,29.96,WSW,242,6.0,6.0,80,0.00,,,0.05,79.0,meteobridge,2014-12-25 16:49:00,
2014-12-25 11:54:00,37.4,32.2,29.96,SW,221,6.9,7.0,81,0.00,,,0.05,63.0,meteobridge,2014-12-25 16:54:00,
2014-12-25 11:59:00,37.4,31.8,29.96,WSW,252,4.0,12.0,80,0.00,,,0.05,58.0,meteobridge,2014-12-25 16:59:00,
2014-12-25 12:04:00,37.2,31.6,29.96,SW,221,2.0,11.0,80,0.00,,,0.05,58.0,meteobridge,2014-12-25 17:04:00,
2014-12-25 12:09:00,37.2,32.0,29.96,SSW,213,4.0,8.0,81,0.00,,,0.05,51.0,meteobridge,2014-12-25 17:09:00,
2014-12-25 12:14:00,37.2,32.2,29.96,SW,215,2.0,9.0,82,0.00,,,0.05,47.0,meteobridge,2014-12-25 17:14:00,
2014-12-25 12:19:00,37.2,32.2,29.96,SW,217,2.0,6.0,82,0.00,,,0.05,69.0,meteobridge,2014-12-25 17:19:00,
2014-12-25 12:24:00,37.2,32.2,29.96,SW,217,4.0,6.0,82,0.00,,,0.05,97.0,meteobridge,2014-12-25 17:24:00,
2014-12-25 12:29:00,37.6,32.9,29.96,WSW,243,2.9,5.0,83,0.00,,,0.05,76.0,meteobridge,2014-12-25 17:29:00,
2014-12-25 12:34:00,37.6,32.5,29.96,SSW,202,4.9,11.0,82,0.00,,,0.05,58.0,meteobridge,2014-12-25 17:34:00,
2014-12-25 12:39:00,37.6,32.5,29.97,WSW,244,4.9,9.0,82,0.00,,,0.05,56.0,meteobridge,2014-12-25 17:39:00,
2014-12-25 12:44:00,37.6,32.5,29.97,SW,233,2.9,6.0,82,0.00,,,0.05,69.0,meteobridge,2014-12-25 17:44:00,
2014-12-25 12:49:00,37.4,32.2,29.97,SSW,199,8.9,14.0,81,0.00,,,0.05,54.0,meteobridge,2014-12-25 17:49:00,
2014-12-25 12:54:00,37.4,32.4,29.98,SSW,205,4.0,12.0,82,0.00,,,0.05,51.0,meteobridge,2014-12-25 17:54:00,
2014-12-25 12:59:00,37.4,32.4,29.98,WSW,248,4.9,13.0,82,0.00,,,0.05,39.0,meteobridge,2014-12-25 17:59:00,
2014-12-25 13:04:00,37.2,32.2,29.98,SSW,200,8.9,13.0,82,0.00,,,0.05,35.0,meteobridge,2014-12-25 18:04:00,